Miscellaneous Local Product
Issued by NWS Hastings, NE

Home | Current Version | Previous Version | Text Only | Print | Product List | Glossary Off
Versions: 1 2 3 4 5 6 7 8 9 10 11 12 13 14 15 16 17 18 19 20 21 22 23 24 25 26 27 28 29 30 31 32 33 34 35 36 37 38 39 40 41 42 43 44 45 46 47 48 49 50

000
AXUS43 KGID 022302
MISGRI

GID CWA HOURLY WEATHER ROUNDUP
NATIONAL WEATHER SERVICE HASTINGS NE
600 PM CDT THU JUL 02 2015

NOTE: "FAIR" INDICATES FEW OR NO CLOUDS BELOW 12,000 FEET WITH NO
SIGNIFICANT WEATHER AND/OR OBSTRUCTIONS TO VISIBILITY.

...SOUTH CENTRAL NEBRASKA...

CITY           SKY/WX    TMP DP  RH WIND       PRES   REMARKS
GRAND ISLAND   SUNNY     82  68  62 N8        29.91F
HASTINGS       MOSUNNY   78  68  71 SE5       29.91S
KEARNEY        MOSUNNY   84  57  39 NW13G20   29.93F
ORD            SUNNY     81  58  45 N17G24    29.94R
YORK           PTSUNNY   75  68  78 SE13      29.91S
AURORA         MOSUNNY   79  62  55 CALM      29.91R
LEXINGTON      SUNNY     84  59  42 N16       29.97S
HOLDREGE       MOSUNNY   81  62  53 NW10      29.96F
HEBRON         MOSUNNY   82  65  55 CALM      29.89F

...NEBRASKA PANHANDLE...

CITY           SKY/WX    TMP DP  RH WIND       PRES   REMARKS
CHADRON        PTSUNNY   77  60  55 E7        30.06F
ALLIANCE       MOSUNNY   79  59  50 NE8       30.09F
SCOTTSBLUFF    PTSUNNY   84  55  36 NE15      30.09F
SIDNEY         SUNNY     82  55  39 NE10      30.12F

...WESTERN AND NORTH CENTRAL NEBRASKA...

CITY           SKY/WX    TMP DP  RH WIND       PRES   REMARKS
VALENTINE      PTSUNNY   79  58  48 N12G21    30.00F
AINSWORTH      MOSUNNY   79  59  49 N13G20    30.01S
ONEILL         MOSUNNY   74  66  75 NE8       29.98S
BROKEN BOW     SUNNY     82  58  43 N16G25    29.97S
IMPERIAL       SUNNY     86  54  33 N10       30.04F
NORTH PLATTE   MOSUNNY   84  58  40 N12G18    30.00F
MCCOOK         MOSUNNY   88  57  34 N14       29.98F

...EASTERN NEBRASKA...

CITY           SKY/WX    TMP DP  RH WIND       PRES   REMARKS
NORFOLK        LGT RAIN  66  64  93 E7        29.97R FOG
SO SIOUX CITY  CLOUDY    67  60  78 E9        29.98S
TEKAMAH        CLOUDY    71  63  75 SE6       29.96S
COLUMBUS       CLOUDY    70  63  78 E13       29.94S
ALBION         PTSUNNY   71  64  78 NE12      29.95R
OMAHA EPPLEY   CLOUDY    70  64  81 E7        29.95F HAZE
OFFUTT AFB     PTSUNNY   71  65  83 E7        29.93F
MILLARD        CLOUDY    70  65  84 E6        29.94F HAZE
LINCOLN        CLOUDY    73  67  81 E15       29.92S
NEBRASKA CITY  CLOUDY    70  67  92 E8        29.94F
BEATRICE       PTSUNNY   74  68  82 E9        29.91F
FALLS CITY     CLOUDY    70  68  93 SE10      29.92F

...NORTHERN KANSAS...

CITY           SKY/WX    TMP DP  RH WIND       PRES   REMARKS
GOODLAND       SUNNY     86  56  35 N13G21    30.05F
HILL CITY      LGT RAIN  91  59  33 N9        29.95F HX  90
NORTON         CLEAR     88  52  29 N13       29.95F
PHILLIPSBURG   MOSUNNY   86  61  42 N15       29.94S
SMITH CENTER   MOSUNNY   82  61  47 NW12      29.92F
HAYS           SUNNY     86  61  42 CALM      29.95S
RUSSELL        SUNNY     83  67  58 SW8       29.93F
CONCORDIA      PTSUNNY   79  67  66 SW5       29.89S
SALINA         SUNNY     84  67  56 W14       29.90F
TOPEKA         CLOUDY    74  69  85 VRB3      29.92S



USA.gov is the U.S. government's official web portal to all federal, state and local government web resources and services.